Date,TemperatureHighF,TemperatureAvgF,TemperatureLowF,DewpointHighF,DewpointAvgF,DewpointLowF,HumidityHigh,HumidityAvg,HumidityLow,PressureMaxIn,PressureMinIn,WindSpeedMaxMPH,WindSpeedAvgMPH,GustSpeedMaxMPH,PrecipitationSumIn
2013-3-1,31.0,28.6,26.0,29.7,27.1,24.5,95,94,94,30.00,29.90,12,4,13,0.02
2013-3-2,26.0,23.6,21.0,24.5,21.1,18.0,94,90,79,30.05,29.96,14,6,16,0.00
2013-3-3,25.0,21.3,20.0,20.4,18.5,16.2,93,89,77,30.09,30.01,10,5,21,0.00
2013-3-4,22.0,20.7,19.0,19.0,15.4,11.1,92,80,68,30.16,30.09,10,4,15,0.00
2013-3-6,29.0,28.8,28.0,27.5,27.3,26.5,94,94,94,30.21,30.09,13,3,13,0.02
2013-3-7,32.0,28.7,27.0,30.7,27.3,25.5,95,94,94,30.34,30.20,9,4,16,0.01
2013-3-8,44.0,33.5,27.0,28.0,25.8,23.2,94,75,47,30.42,30.31,13,6,16,0.04
2013-3-9,65.0,47.0,29.0,29.8,25.9,23.3,81,48,22,30.38,30.14,12,4,17,0.00
2013-3-10,71.0,58.3,49.0,35.3,30.3,26.6,44,35,24,30.16,29.99,13,5,20,0.00
2013-3-11,55.0,54.5,54.0,33.1,31.8,30.4,45,42,39,30.01,29.90,13,6,23,0.00
2013-3-13,34.0,26.8,22.0,27.5,22.6,18.4,94,84,63,30.27,30.07,20,7,37,0.02
2013-3-14,23.0,21.9,21.0,21.3,19.2,16.1,93,89,81,30.32,30.26,12,6,20,0.00
2013-3-15,57.0,53.6,50.0,34.8,33.4,32.2,54,47,39,29.90,29.87,9,4,18,0.00
2013-3-16,71.0,55.5,43.0,52.2,43.4,34.0,96,66,41,29.96,29.64,15,5,28,0.28
2013-3-17,46.0,37.9,34.0,41.4,36.3,32.7,96,94,84,30.12,29.96,15,6,23,0.25
2013-3-18,50.0,42.9,38.0,46.0,39.9,34.3,96,89,78,30.00,29.71,20,7,31,0.26
2013-3-19,50.0,42.0,35.0,47.5,21.9,5.4,97,53,20,30.08,29.76,18,6,37,0.25
2013-3-20,45.0,35.0,28.0,28.0,15.9,7.4,94,49,29,30.11,29.82,22,5,29,0.00
2013-3-21,28.0,21.0,17.0,20.0,14.6,7.2,92,77,61,30.05,29.94,13,6,23,0.01
2013-3-22,43.0,28.8,15.0,16.8,11.7,7.9,74,52,30,30.07,29.98,9,3,14,0.00
2013-3-23,54.0,39.2,30.0,21.8,17.1,12.1,65,41,25,30.06,29.92,11,4,14,0.00
2013-3-24,42.0,38.6,35.0,35.4,27.5,17.8,95,68,41,29.91,29.46,19,7,31,0.39
2013-3-25,36.0,33.5,31.0,34.7,32.2,28.9,95,95,92,29.55,29.49,10,5,22,0.08